Regional Weather Roundup
Issued by NWS

Home | Current Version | Previous Version | Graphics & Text | Print | Product List | Glossary On
Versions: 1 2 3 4 5 6 7 8 9 10 11 12 13 14 15 16 17 18 19 20 21 22 23 24 25 26 27 28 29 30 31 32 33 34 35 36 37 38 39 40 41 42 43 44 45 46 47 48 49 50
000
ASUS43 KMKX 200300
RWRWI

WISCONSIN REGIONAL WEATHER ROUNDUP
NATIONAL WEATHER SERVICE MILWAUKEE/SULLIVAN WI
900 PM CST FRI DEC 19 2014

NOTE: "FAIR" INDICATES FEW OR NO CLOUDS BELOW 12,000 FEET WITH NO
SIGNIFICANT WEATHER AND/OR OBSTRUCTIONS TO VISIBILITY.

WIZ001-002-006>008-014>016-023>028-200400-
NORTHWEST WISCONSIN

CITY           SKY/WX    TMP DP  RH WIND       PRES   REMARKS
SUPERIOR ARPT  CLOUDY    27  23  87 CALM      30.20F
ASHLAND        CLOUDY    25  22  88 S3        30.22F
HAYWARD        CLOUDY    25  20  81 S5        30.19F WCI  19
SIREN          CLOUDY    27  22  82 S7        30.19F WCI  19
CUMBERLAND     CLOUDY    27  21  80 SE6       30.18F WCI  20
RICE LAKE      CLOUDY    27  22  83 SE7       30.21F WCI  19
CHETEK         CLOUDY    26  22  84 E5        30.20F WCI  20
LADYSMITH      CLOUDY    25  22  88 SE5       30.22F WCI  20
EAU CLAIRE     NOT AVBL
MENOMONIE      CLOUDY    28  23  81 SE5       30.21F WCI  23
NEW RICHMOND   CLOUDY    27  24  89 SE7       30.19F WCI  20
OSCEOLA        CLOUDY    28  24  84 SE8       30.21F WCI  20
$$

WIZ003>005-009-010-017-018-200400-
NORTH CENTRAL WISCONSIN

CITY           SKY/WX    TMP DP  RH WIND       PRES   REMARKS
MANITOWISH WTR CLOUDY    21  20  95 S3        30.18F
ARBOR VITAE    CLOUDY    22  19  87 CALM      30.19F
WOODRUFF       CLOUDY    22  19  87 CALM      30.19F
RHINELANDER    CLOUDY    18  16  92 CALM      30.20F
EAGLE RIVER    MOCLDY    16  16  98 CALM      30.20S
LAND O LAKES   CLOUDY    15  13  92 CALM      30.20F
PHILLIPS       CLOUDY    22  20  93 S3        30.19F
TOMAHAWK       CLOUDY    22  19  90 CALM      30.21F
MEDFORD        CLOUDY    22  20  92 S5        30.20F WCI  16
MERRILL        CLOUDY    23  20  89 W5        30.22S WCI  17
$$

WIZ029-030-035-036-043>047-200400-
CENTRAL WISCONSIN

CITY           SKY/WX    TMP DP  RH WIND       PRES   REMARKS
WAUSAU         CLOUDY    23  19  85 CALM      30.21F
MOSINEE        CLOUDY    23  21  93 CALM      30.23F
MARSHFIELD     CLOUDY    24  20  84 SE5       30.21F WCI  18
STEVENS POINT  CLOUDY    22  19  87 CALM      30.24F
WAUPACA        CLOUDY    26  20  80 CALM      30.26F
WAUTOMA        NOT AVBL
WISC RAPIDS    CLOUDY    23  18  81 CALM      30.25F
CAMP DOUGLAS   NOT AVBL
$$

WIZ011>013-019>022-031-037>040-048>050-200400-
NORTHEAST WISCONSIN

CITY           SKY/WX    TMP DP  RH WIND       PRES   REMARKS
ANTIGO         CLEAR     17  15  95 CALM      30.21F
SHAWANO        CLEAR     24  19  82 CALM      30.26F
OCONTO         CLEAR     17  16  98 CALM      30.28F
STURGEON BAY   CLEAR     21  18  86 CALM      30.28F
GREEN BAY      CLEAR     25  21  85 CALM      30.27F
MANITOWOC      NOT AVBL
APPLETON       PTCLDY    21  18  86 CALM      30.25F
CLINTONVILLE   CLEAR     21  18  86 CALM      30.26F
OSHKOSH        PTCLDY    24  17  74 CALM      30.25F
$$

WIZ032>034-041-042-053>061-200400-
SOUTHWEST WISCONSIN

CITY           SKY/WX    TMP DP  RH WIND       PRES   REMARKS
LA CROSSE      CLOUDY    30  21  69 S7        30.23F WCI  23
SPARTA         CLOUDY    28  21  73 CALM      30.24F
VIROQUA        CLOUDY    27  22  83 S3        30.20F
BOSCOBEL       CLOUDY    27  21  78 CALM      30.25S
PRAIRIE DU CHI CLOUDY    28  22  76 E3        30.24F
PLATTEVILLE    CLOUDY    28  24  83 CALM      30.24S
$$

WIZ056-057-062-063-064-067-068-200400-
SOUTH CENTRAL WISCONSIN

CITY           SKY/WX    TMP DP  RH WIND       PRES   REMARKS
REEDSBURG      MOCLDY    23  20  89 CALM      30.24S
BARABOO/DELLS  MOCLDY    22  19  89 E3        30.23F
LONE ROCK      NOT AVBL
MINERAL POINT  MOCLDY    27  23  86 SE5       30.22F WCI  21
MADISON        CLOUDY    24  20  84 SE6       30.24F WCI  17
MIDDLETON      CLOUDY    27  22  83 CALM      30.24F
WATERTOWN      MOCLDY    22  19  91 CALM      30.25F
MONROE         MOCLDY    25  23  93 SE5       30.24R WCI  19
JANESVILLE     CLOUDY    28  23  80 E5        30.26S WCI  23
$$

WIZ051-052-058>065-066-070>072-200400-
SOUTHEAST WISCONSIN

CITY           SKY/WX    TMP DP  RH WIND       PRES   REMARKS
MILWAUKEE      MOCLDY    28  18  66 CALM      30.27S
WAUKESHA       CLEAR     21  18  86 CALM      30.26F
MILWAUKEE/TIMM CLOUDY    27  19  74 CALM      30.26F
RACINE         CLOUDY    28  20  71 W3        30.28F
BURLINGTON     CLOUDY    24  19  80 CALM      30.26F
KENOSHA        CLOUDY    27  20  75 CALM      30.27S
FOND DU LAC    MOCLDY    23  18  81 CALM      30.25F
SHEBOYGAN      CLOUDY    28  21  75 N5        30.26F WCI  23
WEST BEND      MOCLDY    27  19  74 CALM      30.25F
JUNEAU         MOCLDY    22  18  84 CALM      30.26F
$$

LSZ147-162-200400-
LAKE SUPERIOR

STATION/POSITION TIME  TEMP    WIND        PRES    WAVE
                       AIR SEA DIR/SP/G            HT/PER
                 (UTC) (F)     (DEG/KT/KT) (MB)    (FT/S)
DEVILS ISLAND    0200   27     180/  6/  8 1024.7F
PORT WING        0200   26      CALM  /  1 1023.4F
SAXON HARBOR     0200   25        CALM     1023.7F
$$

LMZ867-665-643>646-200400-
LAKE MICHIGAN

STATION/POSITION TIME  TEMP    WIND        PRES    WAVE
                       AIR SEA DIR/SP/G            HT/PER
                 (UTC) (F)     (DEG/KT/KT) (MB)    (FT/S)
CHAMBERS ISLAND  0200   18      CALM  /  1 1025.7F
NORTHPORT PIER   0224   25     180/  1/  3 1025.7F
ALGOMA LAKESHORE 0214          300/  5/  7   N/A
KEWAUNEE LAKESHO 0200   28      CALM  /  3 1024.8F
SHEBOYGAN LAKESH 0200   29 34  310/  5/  6 1026.2F
PORT WASHINGTON  0240   30     350/  2/  3 1025.4F
MILWAUKEE LAKESH 0200   29     280/  2/  2   N/A
KENOSHA   LAKESH 0200   28     300/  5/  7 1025.4S
$$

TC  - TEMPERATURE IN CELSIUS
VSB - VISIBILITY IN STATUTE MILES
WCI - WIND CHILL INDEX
HX  - HEAT INDEX




USA.gov is the U.S. government's official web portal to all federal, state and local government web resources and services.